| time (UTC) | temp F | wind direction | speed knots | gust knots | rain 1hr in | rain 24hr in | rain mn in | humidity % | barometer mb |
| 20260901211555 | 84 | 150 | 11.3 | 14.8 | 0.00 | 0.00 | 0.00 | 22 | 1006.8 |
| 20260901210037 | 83 | 135 | 13.0 | 17.4 | 0.00 | 0.00 | 0.00 | 23 | 1006.9 |
| 20260901204539 | 83 | 129 | 11.3 | 18.2 | 0.00 | 0.00 | 0.00 | 22 | 1007.0 |
| 20260901203023 | 83 | 165 | 10.4 | 18.2 | 0.00 | 0.00 | 0.00 | 22 | 1007.1 |
| 20260901201513 | 83 | 169 | 11.3 | 20.0 | 0.00 | 0.00 | 0.00 | 23 | 1007.3 |
| 20260901200053 | 83 | 175 | 11.3 | 18.2 | 0.00 | 0.00 | 0.00 | 24 | 1007.5 |
| 20260901194555 | 81 | 117 | 15.6 | 20.0 | 0.00 | 0.00 | 0.00 | 25 | 1007.6 |
| 20260901193035 | 81 | 142 | 14.8 | 19.1 | 0.00 | 0.00 | 0.00 | 26 | 1007.9 |
| 20260901191530 | 81 | 148 | 16.5 | 20.9 | 0.00 | 0.00 | 0.00 | 25 | 1007.9 |
| 20260901190015 | 80 | 142 | 14.8 | 19.1 | 0.00 | 0.00 | 0.00 | 26 | 1008.0 |
| 20260901184529 | 80 | 172 | 14.8 | 20.0 | 0.00 | 0.00 | 0.00 | 25 | 1008.1 |
| 20260901183012 | 80 | 105 | 13.0 | 20.9 | 0.00 | 0.00 | 0.00 | 27 | 1008.2 |
| 20260901181509 | 78 | 122 | 13.0 | 19.1 | 0.00 | 0.00 | 0.00 | 30 | 1008.4 |
| 20260901180006 | 77 | 126 | 14.8 | 21.7 | 0.00 | 0.00 | 0.00 | 31 | 1008.5 |
| 20260901174518 | 78 | 148 | 14.8 | 21.7 | 0.00 | 0.00 | 0.00 | 30 | 1008.6 |
| 20260901173003 | 77 | 175 | 16.5 | 24.3 | 0.00 | 0.00 | 0.00 | 30 | 1008.8 |
| 20260901171612 | 77 | 150 | 16.5 | 21.7 | 0.00 | 0.00 | 0.00 | 30 | 1008.7 |
| 20260901170039 | 74 | 180 | 13.9 | 21.7 | 0.00 | 0.00 | 0.00 | 35 | 1008.8 |
| 20260901164540 | 70 | 153 | 6.1 | 9.6 | 0.00 | 0.00 | 0.00 | 41 | 1009.1 |
| 20260901163012 | 69 | 164 | 5.2 | 8.7 | 0.00 | 0.00 | 0.00 | 43 | 1009.1 |
| 20260901161511 | 68 | 136 | 7.0 | 10.4 | 0.00 | 0.00 | 0.00 | 44 | 1009.3 |
| 20260901160117 | 67 | 157 | 2.6 | 5.2 | 0.00 | 0.00 | 0.00 | 45 | 1009.3 |
| 20260901154553 | 66 | 197 | 4.3 | 7.0 | 0.00 | 0.00 | 0.00 | 47 | 1009.6 |
| 20260901153105 | 65 | 164 | 4.3 | 8.7 | 0.00 | 0.00 | 0.00 | 48 | 1009.7 |
| 20260901151533 | 64 | 140 | 4.3 | 6.1 | 0.00 | 0.00 | 0.00 | 51 | 1009.8 |
| 20260901150033 | 62 | 9 | 0.0 | 1.7 | 0.00 | 0.00 | 0.00 | 56 | 1009.8 |
| 20260901144516 | 59 | 9 | 1.7 | 3.5 | 0.00 | 0.00 | 0.00 | 63 | 1009.7 |
| 20260901143019 | 57 | 9 | 1.7 | 5.2 | 0.00 | 0.00 | 0.00 | 68 | 1009.7 |
| 20260901141557 | 55 | 9 | 2.6 | 4.3 | 0.00 | 0.00 | 0.00 | 71 | 1009.7 |
| 20260901140057 | 53 | 9 | 2.6 | 4.3 | 0.00 | 0.00 | 0.00 | 75 | 1009.4 |
| 20260901134540 | 51 | 9 | 2.6 | 4.3 | 0.00 | 0.00 | 0.00 | 78 | 1009.4 |
| 20260901133037 | 49 | 9 | 3.5 | 5.2 | 0.00 | 0.00 | 0.00 | 79 | 1009.6 |
| 20260901131519 | 48 | 342 | 3.5 | 5.2 | 0.00 | 0.00 | 0.00 | 78 | 1009.5 |
| 20260901130025 | 48 | 342 | 2.6 | 4.3 | 0.00 | 0.00 | 0.00 | 78 | 1009.6 |
| 20260901124605 | 48 | 342 | 2.6 | 5.2 | 0.00 | 0.00 | 0.00 | 78 | 1009.7 |
| 20260901123115 | 48 | 9 | 3.5 | 6.1 | 0.00 | 0.00 | 0.00 | 77 | 1009.6 |
| 20260901121545 | 48 | 348 | 4.3 | 6.1 | 0.00 | 0.00 | 0.00 | 77 | 1009.7 |
| 20260901120049 | 47 | 10 | 4.3 | 7.0 | 0.00 | 0.00 | 0.00 | 78 | 1009.7 |
| 20260901114523 | 47 | 9 | 6.1 | 7.8 | 0.00 | 0.00 | 0.00 | 77 | 1009.8 |
| 20260901113022 | 47 | 5 | 6.1 | 7.0 | 0.00 | 0.00 | 0.00 | 77 | 1010.0 |
| 20260901111503 | 47 | 11 | 5.2 | 7.0 | 0.00 | 0.00 | 0.00 | 78 | 1010.1 |
| 20260901110002 | 47 | 30 | 4.3 | 6.1 | 0.00 | 0.00 | 0.00 | 77 | 1010.0 |
| 20260901104548 | 49 | 36 | 4.3 | 6.1 | 0.00 | 0.00 | 0.00 | 75 | 1009.9 |
| 20260901103044 | 47 | 86 | 2.6 | 4.3 | 0.00 | 0.00 | 0.00 | 77 | 1009.9 |
| 20260901101525 | 47 | 86 | 2.6 | 5.2 | 0.00 | 0.00 | 0.00 | 77 | 1010.0 |
| 20260901100023 | 47 | 74 | 3.5 | 5.2 | 0.00 | 0.00 | 0.00 | 75 | 1010.2 |
| 20260901094601 | 48 | 84 | 4.3 | 6.1 | 0.00 | 0.00 | 0.00 | 72 | 1010.1 |
| 20260901093057 | 50 | 103 | 3.5 | 5.2 | 0.00 | 0.00 | 0.00 | 72 | 1010.2 |
| 20260901091539 | 50 | 99 | 2.6 | 4.3 | 0.00 | 0.00 | 0.00 | 71 | 1010.1 |
| 20260901090037 | 51 | 88 | 2.6 | 4.3 | 0.00 | 0.00 | 0.00 | 70 | 1010.2 |
| 20260901084519 | 50 | 112 | 2.6 | 6.1 | 0.00 | 0.00 | 0.00 | 72 | 1010.3 |
| 20260901083021 | 50 | 108 | 4.3 | 7.0 | 0.00 | 0.00 | 0.00 | 70 | 1010.4 |
| 20260901081557 | 51 | 106 | 3.5 | 7.0 | 0.00 | 0.00 | 0.00 | 67 | 1010.5 |
| 20260901080055 | 54 | 139 | 6.1 | 8.7 | 0.00 | 0.00 | 0.00 | 66 | 1010.6 |
| 20260901074538 | 54 | 134 | 6.1 | 7.0 | 0.00 | 0.00 | 0.00 | 66 | 1010.6 |
| 20260901073038 | 53 | 128 | 6.1 | 7.0 | 0.00 | 0.00 | 0.00 | 67 | 1010.8 |
| 20260901071518 | 55 | 125 | 5.2 | 7.8 | 0.00 | 0.00 | 0.00 | 61 | 1010.7 |
| 20260901070017 | 54 | 129 | 6.1 | 8.7 | 0.00 | 0.00 | 0.00 | 66 | 1010.6 |
| 20260901064557 | 53 | 102 | 2.6 | 5.2 | 0.00 | 0.00 | 0.00 | 61 | 1010.8 |
| 20260901063106 | 54 | 119 | 6.1 | 7.0 | 0.00 | 0.00 | 0.00 | 64 | 1010.7 |
| 20260901061543 | 56 | 130 | 5.2 | 7.8 | 0.00 | 0.00 | 0.00 | 60 | 1010.8 |
| 20260901060035 | 55 | 115 | 3.5 | 4.3 | 0.00 | 0.00 | 0.00 | 62 | 1010.9 |
| 20260901054514 | 55 | 115 | 4.3 | 7.0 | 0.00 | 0.00 | 0.00 | 60 | 1010.9 |
| 20260901053016 | 58 | 125 | 6.1 | 8.7 | 0.00 | 0.00 | 0.00 | 57 | 1011.0 |
| 20260901051552 | 59 | 134 | 7.8 | 8.7 | 0.00 | 0.00 | 0.00 | 54 | 1011.1 |
| 20260901050052 | 59 | 137 | 7.8 | 10.4 | 0.00 | 0.00 | 0.00 | 53 | 1011.1 |
| 20260901044534 | 59 | 133 | 7.8 | 9.6 | 0.00 | 0.00 | 0.00 | 52 | 1011.2 |
| 20260901043037 | 59 | 119 | 7.0 | 8.7 | 0.00 | 0.00 | 0.00 | 50 | 1011.2 |
| 20260901041516 | 58 | 103 | 5.2 | 7.8 | 0.00 | 0.00 | 0.00 | 50 | 1011.3 |
| 20260901040017 | 57 | 98 | 4.3 | 6.1 | 0.00 | 0.00 | 0.00 | 50 | 1011.2 |
| 20260901034553 | 60 | 92 | 6.1 | 7.8 | 0.00 | 0.00 | 0.00 | 46 | 1011.2 |
| 20260901033051 | 61 | 98 | 5.2 | 7.0 | 0.00 | 0.00 | 0.00 | 45 | 1011.1 |
| 20260901031532 | 61 | 91 | 6.1 | 7.0 | 0.00 | 0.00 | 0.00 | 47 | 1010.8 |
| 20260901030028 | 61 | 76 | 1.7 | 4.3 | 0.00 | 0.00 | 0.00 | 45 | 1010.8 |
| 20260901024508 | 63 | 60 | 1.7 | 3.5 | 0.00 | 0.00 | 0.00 | 44 | 1010.7 |
| 20260901023003 | 64 | 232 | 2.6 | 4.3 | 0.00 | 0.00 | 0.00 | 42 | 1010.7 |
| 20260901021545 | 67 | 232 | 1.7 | 3.5 | 0.00 | 0.00 | 0.00 | 38 | 1010.6 |
| 20260901020049 | 71 | 232 | 1.7 | 2.6 | 0.00 | 0.00 | 0.00 | 34 | 1010.7 |
| 20260901014530 | 74 | 232 | 0.9 | 1.7 | 0.00 | 0.00 | 0.00 | 32 | 1010.7 |
| 20260901013029 | 75 | 232 | 0.0 | 0.9 | 0.00 | 0.00 | 0.00 | 31 | 1010.8 |
| 20260901011526 | 75 | 232 | 0.0 | 3.5 | 0.00 | 0.00 | 0.00 | 31 | 1010.8 |
| 20260901010026 | 75 | 284 | 2.6 | 7.0 | 0.00 | 0.00 | 0.00 | 31 | 1010.9 |
| 20260901004525 | 75 | 236 | 3.5 | 7.0 | 0.00 | 0.00 | 0.00 | 31 | 1011.0 |
| 20260901003025 | 75 | 240 | 5.2 | 7.8 | 0.00 | 0.00 | 0.00 | 31 | 1011.1 |
| 20260901001524 | 76 | 223 | 5.2 | 7.8 | 0.00 | 0.00 | 0.00 | 31 | 1011.0 |
| 20260901000022 | 75 | 281 | 4.3 | 9.6 | 0.00 | 0.00 | 0.00 | 32 | 1010.9 |
| 20260831234506 | 76 | 258 | 3.5 | 8.7 | 0.00 | 0.00 | 0.00 | 32 | 1011.0 |
| 20260831233004 | 75 | 224 | 1.7 | 7.0 | 0.00 | 0.00 | 0.00 | 32 | 1011.1 |
| 20260831231550 | 75 | 303 | 7.0 | 9.6 | 0.00 | 0.00 | 0.00 | 33 | 1011.1 |
| 20260831230043 | 75 | 232 | 4.3 | 12.2 | 0.00 | 0.00 | 0.00 | 33 | 1011.1 |
| 20260831224523 | 75 | 238 | 6.1 | 9.6 | 0.00 | 0.00 | 0.00 | 33 | 1011.2 |
| 20260831223022 | 75 | 321 | 6.1 | 10.4 | 0.00 | 0.00 | 0.00 | 34 | 1011.3 |
| 20260831221504 | 74 | 178 | 7.0 | 15.6 | 0.00 | 0.00 | 0.00 | 34 | 1011.5 |
| 20260831220003 | 74 | 219 | 6.1 | 11.3 | 0.00 | 0.00 | 0.00 | 35 | 1011.3 |
| 20260831214545 | 74 | 225 | 6.1 | 13.0 | 0.00 | 0.00 | 0.00 | 35 | 1011.3 |
| 20260831213043 | 74 | 216 | 8.7 | 12.2 | 0.00 | 0.00 | 0.00 | 35 | 1011.4 |